This is the latest recevied weather packets stored in our database for station/object W6JCZ-13. If no packets are shown the sender has not sent any weather packets the latest 10 day(s).
| Time | Temp. | Humidity | Pressure | Rain* | Wind** | Luminosity | Snow |
|---|---|---|---|---|---|---|---|
| 1777772117 | 20° C | 62% | 1007.2 hPa | 0 mm | - | - | - |
| 1777771517 | 20° C | 61% | 1007.2 hPa | 0 mm | - | - | - |
| 1777770917 | 20.56° C | 62% | 1007.2 hPa | 0 mm | - | - | - |
| 1777770316 | 20.56° C | 61% | 1007.2 hPa | 0 mm | - | - | - |
| 1777769717 | 21.11° C | 60% | 1007.2 hPa | 0 mm | - | - | - |
| 1777769117 | 21.11° C | 59% | 1007.1 hPa | 0 mm | - | - | - |
| 1777768517 | 21.67° C | 58% | 1007 hPa | 0 mm | - | - | - |
| 1777767917 | 21.67° C | 59% | 1007.2 hPa | 0 mm | - | - | - |
| 1777767317 | 21.67° C | 59% | 1007.4 hPa | 0 mm | - | - | - |
| 1777766716 | 21.67° C | 58% | 1007.5 hPa | 0 mm | - | - | - |
| 1777766117 | 21.67° C | 57% | 1007.6 hPa | 0 mm | - | - | - |
| 1777765517 | 21.67° C | 57% | 1007.7 hPa | 0 mm | - | - | - |
| 1777764917 | 21.67° C | 57% | 1007.8 hPa | 0 mm | - | - | - |
| 1777764317 | 22.22° C | 56% | 1007.7 hPa | 0 mm | - | - | - |
| 1777763717 | 22.22° C | 55% | 1007.7 hPa | 0 mm | - | - | - |
| 1777763117 | 22.78° C | 56% | 1008 hPa | 0 mm | - | - | - |
| 1777762517 | 22.78° C | 55% | 1008.1 hPa | 0 mm | - | - | - |
| 1777761917 | 23.33° C | 53% | 1008.2 hPa | 0 mm | - | - | - |
| 1777761317 | 23.89° C | 52% | 1008.3 hPa | 0 mm | - | - | - |
| 1777760717 | 23.89° C | 52% | 1008.4 hPa | 0 mm | - | - | - |
| 1777760117 | 24.44° C | 51% | 1008.5 hPa | 0 mm | - | - | - |
| 1777759516 | 23.89° C | 47% | 1008.6 hPa | 0 mm | - | - | - |
| 1777758917 | 23.89° C | 52% | 1008.6 hPa | 0 mm | - | - | - |
| 1777758317 | 23.89° C | 52% | 1008.7 hPa | 0 mm | - | - | - |
| 1777757717 | 23.33° C | 55% | 1008.9 hPa | 0 mm | - | - | - |
* Rain latest hour (hover to see other rain measurements)
** Current wind speed in m/s (hover to see current wind gust speed)